STARLINK-1333, 45580

Orbit data source: Space-Track

STARLINK-1333, 45580 is a payload satellite owned by SpaceX/Seattle (US) in LEO that was launched on Wed, 22 Apr 2020 UTC via an FALCON 9 launch vehicle from the Air Force Eastern Test Range (AFETR). Payload-class satellites include a variety of spacecraft equipped with specific instruments for various scientific and technological missions. These include communications satellites like Starlink; space stations such as the ISS; scientific satellites like the Hubble; Earth observation satellites from companies like Planet Labs, Umbra, and HawkEye 360; GPS; miniature CubeSats for education and research; and military/defense satellites.

Loading next visibility...
Identifier
45580, 2020-025BB
Orbit
LEO
Country
Flag of USUS
Related business
Manufacturer
SpaceX/Seattle
Mission
Partially operational Commercial Communications
Bus & Motor
STARLINK, Unknown motor
Mass
260 kg wet, ~248 kg dry
Launch date (UTC)
2020-04-22 (6 years ago)
Launch vehicle
FALCON 9
Launch site
Air Force Eastern Test Range (AFETR)
Object type
Payload
Rocket body
Debris
Shape & HBR
Box + 1 Pan, 10.1 m
Radar Cross Section
13.562 m², Large (>1 m²)

Expand to show TLE details & history
Last TLE update: 20 hours ago

TLE from 20 hours ago
0 STARLINK-1333
1 45580U 20025BB  26258.04363980  .00053523  00000-0  11531-2 0  9998
2 45580  53.1521 270.4424 0003654  54.4319 305.7028 15.44096586354609
Epoch: 2026-09-15T01:02Z
TLE epoch observation values (Epoch: 2026-09-15T01:02:50.478Z)
Latitude
-0.00003°
Longitude
-99.28319°
Altitude
433.486 km
Speed
7.654 km/s
True Right ascension
18h 01m 46s
True Declination
0° 00' 00"
Sunlit
Object was in daylight at epoch
Visualization orbit readout
Latitude
Unknown
Longitude
Unknown
Altitude
Unknown
Speed
Unknown
Apparent Right ascension
Unknown
Apparent Declination
Unknown
Sunlit
N/A
Visualization observer readout
Local Sidereal Time
13:24:14
Azimuth
Unknown
Elevation
Unknown
Doppler factor
Unknown
Orbital elements
Apogee altitude
436.782 km
Perigee altitude
431.804 km
Semi-major axis
6,812.43 km
Eccentricity
0.00037
Inclination
53.1521°
RAAN
270.4424°
Arg. of periapsis
54.4319°
True anomaly
305.66879°
Mean anomaly
305.7028°
Eccentric anomaly
305.6858°
Mean motion
3.86002 °/min
Orbital period
93.26 mins
BSTAR
0.0011531
Loading maneuver chart data...
Computing Atmospheric mass density...

Documentation

Showing up to 5 results
|